Regional Weather Roundup
Issued by NWS

Home | Current Version | Previous Version | Graphics & Text | Print | Product List | Glossary On
Versions: 1 2 3 4 5 6 7 8 9 10 11 12 13 14 15 16 17 18 19 20 21 22 23 24 25 26 27
000
ASUS45 KPSR 050910
RWRAZ

ARIZONA HOURLY REGIONAL WEATHER ROUNDUP
NATIONAL WEATHER SERVICE PHOENIX AZ
200 AM MST MON DEC 05 2016

NOTE: FAIR INDICATES FEW OR NO CLOUDS BELOW 12,000 FEET WITH NO
SIGNIFICANT WEATHER AND/OR OBSTRUCTIONS TO VISIBILITY.

AZZ001>003-036-051000-
NORTHWEST ARIZONA

CITY           SKY/WX    TMP DP  RH WIND       PRES   REMARKS
BULLHEAD CITY  CLEAR     48  23  37 S5        29.93S
KINGMAN        MOCLDY    40  13  33 SE7       29.94F
$$

AZZ004>008-015-016-018-051000-
NORTH CENTRAL ARIZONA

CITY           SKY/WX    TMP DP  RH WIND       PRES   REMARKS
GRAND CANYON   PTCLDY    20  17  88 NE6       30.01F WCI  12
PRESCOTT       MOCLDY    37  20  50 SE5       30.01S WCI  33
FLAGSTAFF      MOCLDY    26  16  65 CALM      30.03F
PAYSON         PTCLDY    34  16  47 CALM      30.05S
PAGE           CLEAR     33  17  51 CALM      29.95S
$$

AZZ009>014-017-051000-
NORTHEAST ARIZONA

CITY           SKY/WX    TMP DP  RH WIND       PRES   REMARKS
WINSLOW        MOCLDY    27  15  61 E8        29.99F WCI  19
SAINT JOHNS    CLEAR     22  14  71 S3        30.00F
WINDOW ROCK    CLEAR     20  14  77 CALM      30.01F
SHOW LOW       CLEAR     34  10  37 S13       30.03F WCI  25
$$

AZZ023-051000-
GREATER PHOENIX AREA

CITY           SKY/WX    TMP DP  RH WIND       PRES   REMARKS
PHOENIX        PTCLDY    49  28  44 E8        29.94F
BUCKEYE        PTCLDY    39  27  60 NW7       29.96F WCI  34
LUKE AFB       PTCLDY    45  30  55 NW8       29.94F
DEER VALLEY    PTCLDY    45  22  40 CALM      29.94F
SCOTTSDALE     PTCLDY    44  30  57 CALM      29.96S
MESA-GATEWAY   CLEAR     41  23  48 SE9       29.95F
$$

AZZ027-028-051000-
SOUTHWEST MARICOPA COUNTY AND PINAL COUNTY

CITY           SKY/WX    TMP DP  RH WIND       PRES   REMARKS
CASA GRANDE    NOT AVBL
$$

AZZ503-504-507>509-051000-
SOUTHEAST ARIZONA

CITY           SKY/WX    TMP DP  RH WIND       PRES   REMARKS
TUCSON         CLEAR     43  22  43 SE9       30.01F
DAVIS-MONTHAN  CLEAR     45  21  38 SE9       30.00S
NOGALES        CLEAR     33  23  66 CALM      30.02F
SIERRA VISTA   CLEAR     40  17  40 W7        30.03F WCI  35
DOUGLAS        CLEAR     28  25  88 E3        30.03S
SAFFORD        CLEAR     33  23  66 E5        30.01S WCI  29
$$

AZZ020-021-025-026-031-051000-
SOUTHWEST ARIZONA

CITY           SKY/WX    TMP DP  RH WIND       PRES   REMARKS
YUMA           PTCLDY    49  20  31 N3        29.91F
$$

CAZ031-033-041-043-047-048-061-051000-
SOUTHERN CALIFORNIA

CITY           SKY/WX    TMP DP  RH WIND       PRES   REMARKS
DOWNTOWN L.A.  CLEAR     51  45  79 CALM      29.97F
L.A. AIRPORT   PTCLDY    52  51  97 E5        29.97F
SAN DIEGO      MOCLDY    55  55 100 S3        30.00R
BURBANK        CLEAR     48  29  47 CALM      29.96F
ONTARIO        PTCLDY    47  35  63 CALM      29.98S
RIVERSIDE      CLEAR     50  40  68 CALM      29.98F
PALM SPRINGS   PTCLDY    56  26  31 N5        29.92F
EL CENTRO NAS  PTCLDY    46  18  32 W7        29.91F
IMPERIAL       PTCLDY    49  29  46 CALM      29.89F
BLYTHE         MOCLDY    44  19  36 NE8       29.91F
NEEDLES        PTCLDY    49  14  24 W7        29.91F
$$

NVZ020-UTZ003-051000-
SOUTHERN NEVADA-UTAH

CITY           SKY/WX    TMP DP  RH WIND       PRES   REMARKS
LAS VEGAS      MOCLDY    45  16  31 W3        29.91F
SALT LAKE CITY CLOUDY    44  24  45 SE5       29.75F
$$

NMZ009-TXZ055-051000-
NEW MEXICO-WEST TEXAS

CITY           SKY/WX    TMP DP  RH WIND       PRES   REMARKS
ALBUQUERQUE    CLOUDY    33  12  41 CALM      30.00F
EL PASO        CLEAR     38  33  82 NE5       30.00F WCI  34
$$


........................KEY........................
SKY/WX - SKY CONDITION/WEATHER
TMP    - TEMPERATURE IN FAHRENHEIT
DP     - DEW POINT IN FAHRENHEIT
RH     - RELATIVE HUMIDITY IN PERCENT
WIND   - DIRECTION AND SPEED IN MILES PER HOUR (MPH)
VRB    - VARIABLE WIND DIRECTION
PRES   - MEAN SEA LEVEL PRESSURE IN INCHES OF MERCURY
         F - FALLING PRESSURE   R - RISING PRESSURE
         S - STEADY PRESSURE
VSB    - VISIBILITY IN MILES
HX     - HEAT INDEX IN FAHRENHEIT
WCI    - WIND CHILL INDEX IN FAHRENHEIT
TC     - TEMPERATURE IN CELSIUS WHICH IS ALSO KNOWN AS
         TEMPERATURE IN CENTIGRADE
AFB    - AIR FORCE BASE
         LUKE AFB IS LUKE AIR FORCE BASE
         DAVIS-MONTHAN IS DAVIS-MONTHAN AIR FORCE BASE
NAS    - NAVAL AIR STATION
         EL CENTRO NAS IS EL CENTRO NAVAL AIR STATION
N/A    - NOT AVAILABLE





USA.gov is the U.S. government's official web portal to all federal, state and local government web resources and services.